This is the latest recevied weather packets stored in our database for station/object N4NVD-13. If no packets are shown the sender has not sent any weather packets the latest 10 day(s).
| Time | Temp. | Humidity | Pressure | Rain* | Wind** | Luminosity | Snow |
|---|---|---|---|---|---|---|---|
| 1777483401 | 26.11° C | 93% | 1011.7 hPa | 0 mm | - | 127 W/m² | - |
| 1777483097 | 26.11° C | 93% | 1011.8 hPa | 0 mm | - | 164 W/m² | - |
| 1777482794 | 26.11° C | 93% | 1011.8 hPa | 0 mm | - | 106 W/m² | - |
| 1777482489 | 26.11° C | 93% | 1012 hPa | 0 mm | - | 83 W/m² | - |
| 1777482187 | 26.11° C | 94% | 1011.9 hPa | 0 mm | - | 114 W/m² | - |
| 1777481885 | 26.11° C | 93% | 1011.9 hPa | 0 mm | - | 89 W/m² | - |
| 1777481582 | 26.11° C | 93% | 1012.1 hPa | 0 mm | - | 83 W/m² | - |
| 1777481279 | 26.67° C | 93% | 1012 hPa | 0 mm | - | 104 W/m² | - |
| 1777480975 | 26.11° C | 93% | 1012.3 hPa | 0 mm | - | 78 W/m² | - |
| 1777480672 | 26.11° C | 93% | 1012.3 hPa | 0 mm | - | 78 W/m² | - |
| 1777480369 | 26.11° C | 93% | 1012.2 hPa | 0 mm | - | 76 W/m² | - |
| 1777480064 | 26.11° C | 94% | 1012.3 hPa | 0 mm | - | 88 W/m² | - |
| 1777479761 | 26.11° C | 93% | 1012.2 hPa | 0 mm | - | 77 W/m² | - |
| 1777479459 | 26.11° C | 94% | 1012.5 hPa | 0 mm | - | 67 W/m² | - |
| 1777479155 | 26.11° C | 94% | 1012.4 hPa | 0 mm | - | 53 W/m² | - |
| 1777478852 | 26.11° C | 94% | 1012.3 hPa | 0 mm | - | 59 W/m² | - |
| 1777478548 | 25.56° C | 95% | 1012 hPa | 0 mm | - | 66 W/m² | - |
| 1777478246 | 26.11° C | 94% | 1012.1 hPa | 0 mm | - | 82 W/m² | - |
| 1777477942 | 25.56° C | 94% | 1012 hPa | 0 mm | - | 89 W/m² | - |
| 1777477637 | 25.56° C | 94% | 1011.8 hPa | 0 mm | - | 77 W/m² | - |
| 1777477334 | 26.11° C | 95% | 1011.8 hPa | 0 mm | - | 75 W/m² | - |
| 1777477031 | 25.56° C | 95% | 1011.8 hPa | 0 mm | - | 87 W/m² | - |
| 1777476729 | 26.11° C | 95% | 1011.9 hPa | 0 mm | - | 70 W/m² | - |
| 1777476425 | 26.11° C | 95% | 1012 hPa | 0 mm | - | 93 W/m² | - |
| 1777476121 | 26.11° C | 94% | 1012.1 hPa | 0 mm | - | 94 W/m² | - |
* Rain latest hour (hover to see other rain measurements)
** Current wind speed in m/s (hover to see current wind gust speed)